User: anonymous
Location: Unspecified
(0.0000°N, 0.0000°E)
Time: 13:24:51
(UTC+00:00)
Language:

Transit 2A - Orbit

View from above orbital plane
View from above orbital plane
View from above satellite
View from above satellite

Ground track
Ground track

The orbit data is extracted from the following two-line orbital elements,

1 00045U 60007A   14201.75578611 -.00000024  00000-0  20934-4 0  1902
2 00045 066.6968 308.0689 0249773 086.3932 064.7636 14.33017218813306
Epoch (UTC): 20 July 2014 18:08:19
Eccentricity: 0.0249773
inclination: 66.6968°
perigee height: 603 km
apogee height: 960 km
right ascension of ascending node: 308.0689°
argument of perigee: 86.3932°
revolutions per day: 14.33017218
mean anomaly at epoch: 64.7636°
orbit number at epoch: 81330

The dashed part of the orbit path shows where the satellite is in the earth's shadow,  

DLR